GFSNIL_sfc_temp_021.txt.gz
Temp
38 38 39 38 37 37 37 37 38 38 38 39 39 40 40 38 37 37 39 41 42 44
35 35 35 34 34 35 35 39 37 37 36 36 37 37 37 36 35 35 36 38 39 40
35 35 34 34 32 32 33 34 33 35 35 35 35 35 34 33 34 34 34 35 35 37
36 35 34 32 32 31 31 31 33 33 32 32 33 34 33 33 33 33 34 34 34 35
36 35 32 32 32 31 30 30 30 31 31 31 32 32 32 32 33 33 33 35 34 35
33 32 33 32 32 32 32 31 31 30 29 30 30 31 31 31 32 33 33 35 35 35
29 30 31 30 29 28 30 29 30 30 30 30 30 31 31 31 31 31 33 33 34 36
30 31 30 28 28 27 27 29 29 29 30 30 30 32 30 31 31 30 31 32 32 33
29 30 29 29 29 29 29 29 28 28 28 27 30 34 35 35 32 32 32 32 32 33
26 26 27 27 26 26 26 27 26 26 27 26 27 32 33 33 31 30 31 31 32 33
23 21 22 22 22 22 22 22 22 23 24 24 26 30 31 31 28 28 28 29 30 31
18 16 17 15 15 17 16 16 16 18 18 18 19 25 26 27 25 24 24 26 27 28
16 12 12 12 11 12 11 12 14 13 13 13 12 19 21 22 20 18 20 22 25 27
12 10 9 9 9 8 7 8 7 8 9 10 11 12 18 21 19 18 17 18 20 24

GFSNIL_sfc_temp_024.txt.gz
Temp
34 34 35 34 34 34 34 35 36 35 36 36 36 37 37 35 35 36 38 39 41 44
33 32 32 32 32 32 32 36 34 33 33 34 35 34 34 33 32 32 33 33 34 36
33 33 32 32 30 30 30 31 31 31 32 33 32 31 31 31 32 31 32 34 32 32
33 33 33 31 31 31 30 30 31 31 31 31 30 31 29 30 31 30 31 31 31 32
33 31 30 31 31 29 31 32 29 30 30 31 30 30 29 29 29 28 30 32 31 31
30 29 28 29 29 29 29 29 29 29 29 30 30 29 30 30 30 30 30 30 31 31
28 28 28 27 27 26 27 26 27 28 28 29 29 30 30 30 29 30 31 31 31 31
28 28 27 26 26 27 27 28 28 28 27 28 29 30 29 30 29 29 29 31 32 32
26 26 26 25 25 25 25 25 25 24 24 24 27 30 31 31 29 29 28 28 29 30
22 21 22 21 22 21 20 20 20 20 21 20 22 26 28 28 27 26 26 26 27 28
19 17 18 18 16 16 17 16 16 16 16 16 18 22 23 24 22 21 22 24 25 25
15 12 14 11 12 13 12 12 11 13 12 11 11 17 19 21 18 18 18 21 22 22
14 8 9 10 9 10 9 10 11 10 10 9 8 14 17 19 16 13 16 18 21 23
11 8 7 7 8 6 6 7 5 6 7 7 9 9 16 19 17 15 14 14 16 19

GFSNIL_sfc_temp_030.txt.gz
Temp
30 29 29 29 28 28 28 28 29 28 29 29 29 29 29 29 29 29 29 29 30 32
29 29 28 27 28 27 28 31 29 28 28 28 28 28 27 27 27 26 27 28 29 29
29 28 28 28 28 28 28 29 28 28 27 27 27 27 26 26 27 26 27 29 27 28
29 28 29 28 27 27 27 27 27 28 27 27 27 26 25 25 26 25 26 26 26 27
30 29 28 27 27 26 26 27 27 27 26 26 26 26 25 25 25 25 25 26 26 26
29 28 27 26 26 26 25 24 24 25 24 24 25 25 25 25 26 26 26 26 26 26
27 27 26 25 24 24 24 23 22 22 23 23 23 24 25 25 24 24 25 25 26 26
27 25 24 22 21 21 21 21 21 21 20 21 22 25 24 24 23 22 22 23 24 24
23 22 20 20 20 20 19 18 18 18 17 16 20 23 24 25 22 21 21 20 21 22
19 18 18 17 17 17 15 15 15 15 15 14 15 21 23 23 21 20 19 19 19 20
17 15 15 14 13 13 13 12 12 12 11 12 14 19 21 22 20 18 18 18 19 18
14 11 12 7 9 10 9 9 8 11 8 8 9 16 19 20 17 17 16 18 19 19
13 7 6 9 6 7 4 9 10 9 8 7 6 13 17 19 17 13 15 16 19 21
10 6 5 4 5 1 1 6 2 4 5 5 7 7 16 20 19 16 15 16 17 20

GFSNIL_sfc_temp_033.txt.gz
Temp
34 34 34 34 34 33 33 33 34 34 34 34 34 34 34 34 34 34 34 34 34 35
33 33 32 32 33 33 33 34 33 32 32 32 32 32 32 31 31 32 32 32 33 33
32 32 32 33 32 32 32 32 32 32 32 31 31 31 30 30 30 30 30 32 31 31
32 32 32 32 31 31 31 31 30 30 30 30 29 30 29 29 30 28 29 30 30 29
32 32 31 30 30 30 29 29 29 28 28 28 28 28 27 27 27 27 27 28 28 28
31 31 30 29 29 29 28 27 27 26 26 25 25 26 26 27 26 26 26 26 26 26
30 30 29 28 27 26 26 25 24 24 24 24 24 25 27 26 25 25 25 25 25 25
30 28 27 25 24 24 23 23 23 22 21 22 23 26 25 25 24 23 23 24 24 24
27 24 22 22 22 21 20 20 19 19 18 17 21 23 25 26 23 22 21 21 22 23
22 21 20 20 19 19 17 17 16 16 16 15 16 21 24 24 22 21 20 20 20 20
20 18 17 16 16 15 15 14 14 14 13 14 15 20 22 23 22 19 20 20 20 19
18 15 15 12 12 13 12 12 10 13 11 9 10 17 21 21 19 18 18 20 20 20
16 11 10 12 10 10 9 11 11 10 10 8 8 14 18 20 19 16 18 19 20 22
13 10 10 8 9 7 5 8 4 6 7 7 8 9 17 21 20 19 18 19 20 22